This is the latest recevied weather packets stored in our database for station/object KB3FKJ. If no packets are shown the sender has not sent any weather packets the latest 10 day(s).
| Time | Temp. | Humidity | Pressure | Rain* | Wind** | Luminosity | Snow |
|---|---|---|---|---|---|---|---|
| 1778079535 | 13.89° C | 93% | 1006.2 hPa | 0 mm | - | 36 W/m² | - |
| 1778079231 | 13.89° C | 93% | 1006.1 hPa | 0 mm | - | 34 W/m² | - |
| 1778078929 | 13.89° C | 93% | 1006.1 hPa | 0 mm | - | 44 W/m² | - |
| 1778078625 | 13.89° C | 93% | 1005.8 hPa | 0 mm | - | 36 W/m² | - |
| 1778078324 | 13.89° C | 93% | 1006 hPa | 0 mm | - | 35 W/m² | - |
| 1778078021 | 13.89° C | 93% | 1006.1 hPa | 0 mm | - | 54 W/m² | - |
| 1778077719 | 13.89° C | 93% | 1006.1 hPa | 0 mm | - | 38 W/m² | - |
| 1778077417 | 13.89° C | 93% | 1005.9 hPa | 0 mm | - | 55 W/m² | - |
| 1778077115 | 13.33° C | 93% | 1006 hPa | 0 mm | - | 47 W/m² | - |
| 1778076813 | 13.33° C | 93% | 1006 hPa | 0 mm | - | 34 W/m² | - |
| 1778076511 | 13.33° C | 93% | 1005.9 hPa | 0 mm | - | 40 W/m² | - |
| 1778076207 | 13.33° C | 93% | 1005.9 hPa | 0 mm | - | 44 W/m² | - |
| 1778075904 | 13.33° C | 93% | 1005.8 hPa | 0 mm | - | 51 W/m² | - |
| 1778075600 | 13.33° C | 92% | 1005.8 hPa | 0 mm | - | 57 W/m² | - |
| 1778075297 | 13.33° C | 93% | 1006 hPa | 0 mm | - | 56 W/m² | - |
| 1778074993 | 13.33° C | 93% | 1006 hPa | 0 mm | - | 44 W/m² | - |
| 1778074690 | 13.33° C | 93% | 1006 hPa | 1.78 mm | - | 38 W/m² | - |
| 1778074387 | 13.33° C | 93% | 1006 hPa | 1.78 mm | - | 45 W/m² | - |
| 1778074084 | 13.33° C | 93% | 1006 hPa | 0 mm | - | 52 W/m² | - |
| 1778073781 | 13.33° C | 92% | 1006 hPa | 0 mm | - | 49 W/m² | - |
| 1778073479 | 13.33° C | 93% | 1006.1 hPa | 0 mm | - | 34 W/m² | - |
| 1778073175 | 13.33° C | 92% | 1006.2 hPa | 0 mm | - | 29 W/m² | - |
| 1778072872 | 13.33° C | 91% | 1006.2 hPa | 0 mm | - | 24 W/m² | - |
| 1778072569 | 13.33° C | 92% | 1006.1 hPa | 0 mm | - | 31 W/m² | - |
| 1778072267 | 12.78° C | 92% | 1006.1 hPa | 0 mm | - | 41 W/m² | - |
* Rain latest hour (hover to see other rain measurements)
** Current wind speed in m/s (hover to see current wind gust speed)